Starlink 30152

operational
NORAD ID: 56828 Int'l Des: 2023-079 Owner: SPXS Country: US Constellation: starlink
LEOCIRCULAR

About Starlink 30152

Description loading...

Live Position

Loading 3D Globe...

Upcoming Passes

Altitude History

Altitude vs Time

uPlot chart will show altitude changes over time

Two-Line Element Set

1 56828U 23079F 25306.10804391 .00000531 00000-0 54419-4 0 9998
2 56828 43.0052 80.5438 0001349 272.3691 87.6997 15.02534964133697
Epoch: Nov 2, 2025 • Age: 35 hours

Current Status

Altitude 562.4 km
Velocity 7.59 km/s
Sub-Earth Point 40.17°N, 116.47°W
Launch Date Jun 4, 2023
Age 2.4 years
Type internet

Technical Details

Classification Payload
Mass 730.00 kg
Dry Mass 700.00 kg
Total Mass 730.00 kg
Length 0.30 m
Diameter 4.10 m
Span 29.00 m
Shape Box + pan
Manufacturer SPXS
Bus Type Starlink V2M
Phase Status In Orbit
Owner/State SPXS/US

Large Constellations

Loading constellations...